ヘリン-ローマン-アルー第1彗星

117P/Helin-Roman-Alu 1 (2014)

English version
Home page
Updated on August 6, 2017

---------------------------------------------------------------------

・ プロフィール

・ 写真集

・ 軌道要素

Epoch 2014 Apr. 13.0 TT = JDT 2456760.5
T 2014 Mar. 27.15682 TT                                 MPCW
q   3.0563461            (2000.0)            P               Q
n   0.11888654     Peri.  222.68161     +0.19404173     +0.97241117
a   4.0961978      Node    58.89726     -0.85433883     +0.23237865
e   0.2538578      Incl.    8.69737     -0.48213376     -0.02041291
P   8.29
From 3432 observations 1988 Aug. 10-2015 Sept. 25, mean residual 0".7.
     Nongravitational parameters Y1 = +0.34, Y2 = +0.0248.

・ 星図

・ 光度変化

        m1 = 3.0 + 5 logΔ + 18.0 log r

---------------------------------------------------------------------

軌道要素はM.P.E.C. 2015-S97に掲載されたものです。
星図はステラナビゲータ Ver.8 (アストロアーツ) で作成したものです。
光度グラフはComet for Windowsで作成したものです。

---------------------------------------------------------------------

Copyright(C) Seiichi Yoshida (comet@aerith.net). All rights reserved.